Tracking 18785 objects as of 23-July-2017
HD Live streaming from Space Station
objects crossing your sky now
MAYAK may become the brightest orbital object in the night sky!
Where is MAYAK now?
How to spot MAYAK

MIDAS 4

Track MIDAS 4 now!
10-day predictions
MIDAS 4 is classified as:


NORAD ID: 192
Int'l Code: 1961-028A
Perigee: 3,493.6 km
Apogee: 3,770.7 km
Inclination: 95.9 °
Period: 165.9 minutes
Semi major axis: 10003 km
RCS: 10.3526 m2 (large)
Launch date: October 21, 1961
Source: United States (US)
Launch site: AIR FORCE WESTERN TEST RANGE (AFWTR)
Your satellite tracking list
Your tracking list is empty





NASA's NSSDC Master Catalog

Two Line Element Set (TLE):
1   192U 61028A   17203.81433372 +.00000024 +00000-0 +12723-1 0  9995
2   192 095.8578 259.6534 0138526 268.8691 089.6288 08.67757639766126
Source of the keplerian elements: AFSPC